Погода в Нармушади

Россия / Рязанская область     54°40′07″N   41°06′47″E
темп.,
°C
ветер,
м/с
пор.,
м/с
влажн.,
%
обл.,
%
осадки,
мм/ч
давл.,
гПа
погр.,
м
25 февраля, чт
чт2500:00−16ю5995100 0.4 1032420
03:00−15ююз51095100 0.7 1028425
06:00−13ююз61195100 1.9 1023433
09:00−11ююз71395100 4.7 1018480
12:00−3ююз51096100 2.3 1014390
15:00+2з411100100 3.1 1012371
18:00+2зсз412100100 0.1 1012374
21:00+1зсз4999100 0.1 1012274
26 февраля, пт
пт2600:00+1з4899100 0.0 1012226
03:00+1зюз3699100 0.0 1013188
06:00+1зюз3799100 0.3 1011206
09:00+1зюз3899100 0.8 1009219
12:00+2зюз411100100 0.4 1007376
15:00+2зюз513100100 0.7 1005358
18:00+2з61499100 0.9 1002492
21:00+2з41392100 1.0 1002612
27 февраля, сб
сб2700:00+1з51488100 0.1 1001833
03:00+1з61389100 0.1 1001783
06:000з6139086 0.0 999615
09:000з6129883 0.1 999709
12:00+1з511100100 0.1 999649
15:000сз5999100 0.5 1000478
18:00−7ссз51093100 0.4 1002593
21:00−9ссз5119199 0.6 1006703
28 февраля, вс
вс2800:00−11ссз51191100 0.1 1009604
03:00−13ссз51092100 0.1 1012510
06:00−15ссз4109397 0.0 1013382
09:00−14ссз599182 0.0 1015368
12:00−11ссз478739 0.0 1017534
15:00−9ссз478769 0.0 1017640
18:00−12ссз3793100 0.0 1019192
21:00−14ссз359560 0.0 102199
1 марта, пн
пн100:00−15ссз33960 0.0 102356
03:00−15ссз33960 0.0 102464
06:00−16ссз23960 0.0 102639
09:00−12ссз249510 0.0 1027143
12:00−6сз258960 0.0 1027396
15:00−3зсз358775 0.0 1026631
18:00−4зюз3692100 0.0 1025175
21:00−4зюз389697 0.1 1024301